QPF
0.00 0.00 0.00 0.00 0.00 0.00 0.00 0.00 0.00 0.00 0.00 0.00 0.02 0.04 0.01 0.00 0.00 0.00 0.00 0.00 0.00 0.00 0.00 0.00 0.00 0.00 0.01 0.01 0.01 0.00 0.01 0.01 0.01 0.03 0.05 0.06 0.05 0.04 0.02 0.02 0.03 0.03 0.03 0.03
0.00 0.00 0.00 0.00 0.00 0.00 0.00 0.00 0.00 0.00 0.00 0.00 0.01 0.03 0.01 0.00 0.00 0.00 0.01 0.00 0.00 0.00 0.00 0.00 0.00 0.01 0.00 0.00 0.00 0.00 0.01 0.01 0.01 0.02 0.04 0.06 0.06 0.04 0.02 0.03 0.04 0.04 0.03 0.02
0.00 0.00 0.00 0.00 0.00 0.00 0.00 0.00 0.00 0.00 0.00 0.00 0.00 0.02 0.01 0.01 0.01 0.01 0.02 0.01 0.00 0.00 0.00 0.00 0.00 0.01 0.01 0.00 0.00 0.01 0.01 0.01 0.01 0.02 0.02 0.04 0.04 0.04 0.03 0.03 0.05 0.05 0.05 0.05
0.00 0.00 0.00 0.00 0.00 0.00 0.00 0.00 0.00 0.00 0.00 0.00 0.01 0.03 0.01 0.01 0.01 0.00 0.02 0.02 0.01 0.00 0.00 0.00 0.01 0.01 0.01 0.00 0.00 0.01 0.01 0.01 0.02 0.03 0.03 0.04 0.04 0.03 0.02 0.02 0.03 0.04 0.04 0.04
0.00 0.00 0.00 0.00 0.00 0.00 0.00 0.00 0.00 0.00 0.00 0.01 0.00 0.01 0.01 0.01 0.01 0.00 0.01 0.02 0.01 0.00 0.00 0.01 0.01 0.02 0.01 0.00 0.00 0.01 0.01 0.02 0.02 0.02 0.03 0.03 0.02 0.02 0.02 0.04 0.04 0.05 0.04 0.04
0.00 0.00 0.00 0.00 0.00 0.00 0.00 0.00 0.00 0.00 0.00 0.01 0.01 0.01 0.01 0.01 0.00 0.00 0.01 0.02 0.01 0.01 0.00 0.00 0.01 0.02 0.01 0.00 0.00 0.01 0.01 0.02 0.01 0.02 0.01 0.01 0.02 0.03 0.04 0.04 0.07 0.07 0.04 0.04
0.00 0.00 0.00 0.00 0.00 0.00 0.00 0.00 0.01 0.01 0.02 0.01 0.00 0.00 0.00 0.00 0.00 0.00 0.00 0.01 0.01 0.00 0.00 0.00 0.01 0.01 0.01 0.00 0.00 0.01 0.01 0.01 0.01 0.02 0.01 0.01 0.01 0.02 0.03 0.05 0.05 0.05 0.04 0.04
0.00 0.00 0.00 0.00 0.00 0.00 0.00 0.00 0.01 0.01 0.02 0.01 0.00 0.00 0.00 0.00 0.00 0.00 0.01 0.01 0.01 0.00 0.00 0.01 0.01 0.01 0.01 0.00 0.00 0.01 0.01 0.01 0.01 0.02 0.02 0.01 0.01 0.02 0.03 0.03 0.04 0.05 0.04 0.03
0.00 0.00 0.00 0.00 0.00 0.00 0.00 0.00 0.00 0.00 0.01 0.01 0.00 0.00 0.00 0.00 0.00 0.00 0.01 0.02 0.03 0.01 0.00 0.01 0.01 0.01 0.01 0.00 0.00 0.01 0.01 0.02 0.02 0.01 0.01 0.01 0.01 0.01 0.02 0.02 0.03 0.04 0.03 0.03
0.00 0.00 0.00 0.00 0.00 0.00 0.00 0.00 0.00 0.00 0.01 0.01 0.00 0.01 0.01 0.01 0.01 0.00 0.00 0.01 0.03 0.02 0.01 0.01 0.02 0.02 0.01 0.00 0.00 0.00 0.01 0.02 0.02 0.02 0.01 0.01 0.01 0.01 0.02 0.01 0.02 0.02 0.03 0.04
0.00 0.00 0.01 0.00 0.00 0.00 0.00 0.00 0.00 0.00 0.01 0.01 0.01 0.01 0.00 0.00 0.00 0.00 0.01 0.01 0.01 0.03 0.02 0.01 0.02 0.02 0.02 0.01 0.00 0.01 0.01 0.02 0.02 0.02 0.02 0.01 0.01 0.01 0.01 0.02 0.02 0.02 0.02 0.03
0.00 0.00 0.01 0.00 0.00 0.00 0.00 0.00 0.00 0.00 0.00 0.01 0.01 0.00 0.00 0.00 0.00 0.00 0.01 0.01 0.01 0.03 0.05 0.02 0.02 0.03 0.02 0.01 0.01 0.01 0.02 0.02 0.02 0.01 0.02 0.02 0.01 0.01 0.02 0.03 0.03 0.03 0.03 0.02
0.00 0.01 0.01 0.01 0.01 0.00 0.00 0.00 0.00 0.00 0.00 0.01 0.01 0.01 0.00 0.01 0.01 0.01 0.01 0.01 0.02 0.03 0.05 0.03 0.02 0.02 0.02 0.01 0.01 0.01 0.01 0.01 0.00 0.00 0.01 0.01 0.02 0.02 0.03 0.02 0.02 0.02 0.02 0.01
0.00 0.00 0.00 0.01 0.01 0.01 0.00 0.00 0.00 0.00 0.00 0.00 0.01 0.01 0.01 0.02 0.01 0.01 0.01 0.01 0.02 0.05 0.07 0.05 0.03 0.02 0.01 0.00 0.00 0.00 0.01 0.00 0.00 0.00 0.00 0.00 0.02 0.03 0.05 0.03 0.01 0.01 0.01 0.01
0.00 0.00 0.00 0.01 0.01 0.00 0.00 0.00 0.00 0.00 0.00 0.00 0.01 0.02 0.02 0.03 0.01 0.01 0.01 0.01 0.02 0.06 0.06 0.04 0.02 0.01 0.01 0.01 0.02 0.01 0.00 0.00 0.00 0.00 0.00 0.00 0.01 0.02 0.03 0.03 0.02 0.01 0.01 0.01
0.00 0.00 0.00 0.00 0.01 0.00 0.00 0.00 0.00 0.00 0.00 0.01 0.01 0.02 0.02 0.02 0.01 0.01 0.01 0.01 0.02 0.04 0.02 0.02 0.02 0.01 0.01 0.01 0.02 0.02 0.01 0.00 0.00 0.00 0.00 0.00 0.00 0.01 0.02 0.02 0.02 0.01 0.01 0.01
0.00 0.00 0.00 0.00 0.00 0.01 0.00 0.00 0.01 0.01 0.01 0.01 0.01 0.02 0.02 0.02 0.01 0.01 0.01 0.01 0.01 0.01 0.02 0.02 0.02 0.02 0.01 0.01 0.01 0.02 0.01 0.00 0.00 0.00 0.00 0.00 0.00 0.01 0.01 0.01 0.01 0.01 0.02 0.02
0.00 0.00 0.00 0.00 0.00 0.01 0.00 0.00 0.01 0.01 0.01 0.01 0.01 0.01 0.01 0.01 0.02 0.01 0.01 0.01 0.01 0.01 0.01 0.02 0.03 0.03 0.01 0.01 0.01 0.01 0.01 0.01 0.01 0.00 0.00 0.00 0.00 0.01 0.01 0.01 0.01 0.01 0.03 0.04
0.00 0.00 0.01 0.01 0.01 0.01 0.00 0.00 0.00 0.01 0.01 0.01 0.01 0.01 0.01 0.00 0.01 0.01 0.01 0.01 0.01 0.01 0.01 0.02 0.03 0.03 0.02 0.01 0.00 0.00 0.00 0.01 0.01 0.01 0.01 0.00 0.00 0.01 0.02 0.02 0.01 0.01 0.02 0.03
0.00 0.00 0.01 0.01 0.01 0.01 0.00 0.00 0.00 0.01 0.01 0.00 0.01 0.01 0.01 0.01 0.01 0.01 0.01 0.01 0.01 0.01 0.01 0.01 0.03 0.03 0.01 0.01 0.00 0.00 0.01 0.01 0.01 0.01 0.01 0.01 0.00 0.00 0.01 0.01 0.01 0.01 0.01 0.02
0.00 0.00 0.00 0.01 0.01 0.01 0.00 0.00 0.01 0.02 0.01 0.00 0.00 0.01 0.01 0.01 0.01 0.01 0.01 0.01 0.01 0.01 0.01 0.01 0.02 0.02 0.01 0.01 0.01 0.01 0.01 0.01 0.01 0.02 0.01 0.01 0.00 0.00 0.00 0.01 0.02 0.01 0.01 0.01
0.00 0.01 0.01 0.01 0.02 0.01 0.00 0.00 0.01 0.01 0.01 0.01 0.01 0.01 0.01 0.01 0.01 0.01 0.01 0.01 0.02 0.01 0.01 0.02 0.02 0.01 0.01 0.01 0.01 0.01 0.01 0.01 0.01 0.02 0.02 0.01 0.01 0.01 0.01 0.02 0.02 0.02 0.02 0.02
0.00 0.01 0.01 0.02 0.01 0.00 0.00 0.00 0.01 0.01 0.01 0.01 0.01 0.01 0.01 0.01 0.01 0.01 0.01 0.01 0.02 0.01 0.02 0.03 0.03 0.01 0.01 0.01 0.01 0.01 0.01 0.02 0.02 0.02 0.02 0.02 0.02 0.02 0.01 0.01 0.02 0.02 0.03 0.03
0.00 0.01 0.02 0.03 0.02 0.01 0.00 0.01 0.01 0.01 0.01 0.01 0.01 0.01 0.01 0.01 0.01 0.01 0.01 0.01 0.02 0.02 0.02 0.03 0.03 0.02 0.02 0.02 0.02 0.02 0.02 0.03 0.03 0.03 0.03 0.02 0.02 0.02 0.01 0.01 0.01 0.02 0.02 0.02
0.01 0.02 0.03 0.02 0.01 0.00 0.00 0.01 0.01 0.01 0.01 0.01 0.01 0.01 0.00 0.00 0.00 0.00 0.00 0.01 0.01 0.02 0.02 0.03 0.03 0.02 0.02 0.02 0.03 0.04 0.04 0.04 0.04 0.05 0.05 0.04 0.04 0.04 0.03 0.02 0.02 0.02 0.03 0.03
0.01 0.03 0.03 0.01 0.01 0.01 0.01 0.01 0.01 0.02 0.02 0.01 0.01 0.01 0.00 0.00 0.00 0.00 0.00 0.01 0.01 0.01 0.02 0.02 0.01 0.01 0.01 0.02 0.02 0.02 0.02 0.03 0.04 0.05 0.06 0.07 0.07 0.06 0.06 0.04 0.03 0.02 0.02 0.03
MSLP
1007.64 1008.20 1008.66 1008.99 1009.22 1009.38 1009.51 1009.64 1009.76 1009.86 1009.88 1009.79 1009.54 1009.11 1008.50 1007.76 1006.97 1006.20 1005.53 1005.04 1004.76 1004.69 1004.82 1005.09 1005.45 1005.87 1006.31 1006.76 1007.22 1007.70 1008.22 1008.76 1009.30 1009.82 1010.28 1010.63 1010.87 1010.99 1011.03 1011.03 1011.06 1011.19 1011.44 1011.83
1008.05 1008.47 1008.79 1009.01 1009.18 1009.34 1009.52 1009.72 1009.93 1010.10 1010.16 1010.05 1009.72 1009.17 1008.42 1007.53 1006.61 1005.75 1005.06 1004.59 1004.38 1004.42 1004.66 1005.04 1005.49 1005.96 1006.41 1006.84 1007.27 1007.72 1008.21 1008.75 1009.31 1009.87 1010.37 1010.79 1011.08 1011.25 1011.31 1011.33 1011.36 1011.46 1011.69 1012.07
1008.37 1008.64 1008.82 1008.95 1009.07 1009.23 1009.46 1009.74 1010.04 1010.27 1010.36 1010.23 1009.83 1009.16 1008.28 1007.25 1006.23 1005.31 1004.61 1004.20 1004.08 1004.24 1004.61 1005.11 1005.65 1006.16 1006.62 1007.03 1007.41 1007.80 1008.24 1008.74 1009.29 1009.87 1010.41 1010.88 1011.24 1011.46 1011.57 1011.62 1011.66 1011.76 1011.98 1012.34
1008.60 1008.73 1008.79 1008.84 1008.93 1009.12 1009.41 1009.79 1010.17 1010.47 1010.58 1010.42 1009.96 1009.18 1008.18 1007.04 1005.92 1004.96 1004.27 1003.91 1003.90 1004.18 1004.68 1005.29 1005.91 1006.47 1006.93 1007.31 1007.63 1007.94 1008.31 1008.75 1009.27 1009.84 1010.41 1010.93 1011.34 1011.63 1011.80 1011.89 1011.96 1012.07 1012.28 1012.61
1008.74 1008.77 1008.75 1008.75 1008.85 1009.09 1009.46 1009.92 1010.40 1010.75 1010.89 1010.71 1010.18 1009.32 1008.21 1006.98 1005.78 1004.79 1004.10 1003.79 1003.86 1004.25 1004.86 1005.57 1006.26 1006.86 1007.32 1007.65 1007.91 1008.14 1008.43 1008.80 1009.27 1009.81 1010.39 1010.93 1011.40 1011.74 1011.98 1012.12 1012.24 1012.37 1012.57 1012.88
1008.86 1008.81 1008.75 1008.76 1008.89 1009.19 1009.65 1010.21 1010.76 1011.18 1011.33 1011.14 1010.56 1009.63 1008.43 1007.11 1005.86 1004.83 1004.14 1003.87 1003.99 1004.46 1005.15 1005.93 1006.67 1007.28 1007.74 1008.04 1008.23 1008.39 1008.59 1008.88 1009.29 1009.79 1010.35 1010.91 1011.41 1011.81 1012.10 1012.30 1012.46 1012.62 1012.82 1013.11
1009.00 1008.92 1008.86 1008.89 1009.08 1009.45 1010.00 1010.64 1011.25 1011.71 1011.89 1011.68 1011.07 1010.08 1008.82 1007.45 1006.15 1005.09 1004.40 1004.13 1004.28 1004.78 1005.51 1006.32 1007.08 1007.71 1008.15 1008.41 1008.55 1008.65 1008.78 1009.00 1009.34 1009.80 1010.33 1010.88 1011.39 1011.82 1012.16 1012.41 1012.60 1012.78 1013.00 1013.27
1009.22 1009.14 1009.10 1009.17 1009.42 1009.86 1010.46 1011.15 1011.81 1012.29 1012.47 1012.26 1011.63 1010.62 1009.33 1007.93 1006.61 1005.53 1004.83 1004.55 1004.69 1005.18 1005.90 1006.70 1007.46 1008.07 1008.49 1008.73 1008.84 1008.89 1008.97 1009.13 1009.42 1009.82 1010.31 1010.84 1011.34 1011.79 1012.14 1012.42 1012.64 1012.84 1013.06 1013.32
1009.54 1009.49 1009.48 1009.59 1009.87 1010.34 1010.97 1011.67 1012.33 1012.80 1012.98 1012.76 1012.12 1011.12 1009.85 1008.47 1007.16 1006.09 1005.37 1005.07 1005.17 1005.62 1006.29 1007.04 1007.76 1008.34 1008.74 1008.96 1009.05 1009.08 1009.13 1009.26 1009.50 1009.86 1010.30 1010.79 1011.27 1011.70 1012.05 1012.33 1012.56 1012.77 1013.00 1013.26
1009.96 1009.94 1009.96 1010.09 1010.38 1010.84 1011.44 1012.09 1012.70 1013.13 1013.28 1013.05 1012.44 1011.48 1010.27 1008.95 1007.70 1006.66 1005.95 1005.63 1005.68 1006.06 1006.64 1007.32 1007.96 1008.48 1008.85 1009.06 1009.15 1009.18 1009.23 1009.35 1009.57 1009.89 1010.30 1010.74 1011.17 1011.57 1011.89 1012.16 1012.38 1012.59 1012.81 1013.08
1010.44 1010.45 1010.49 1010.62 1010.87 1011.26 1011.77 1012.32 1012.84 1013.19 1013.28 1013.06 1012.49 1011.61 1010.51 1009.31 1008.16 1007.20 1006.53 1006.20 1006.19 1006.48 1006.95 1007.51 1008.05 1008.50 1008.83 1009.02 1009.12 1009.17 1009.24 1009.38 1009.60 1009.91 1010.28 1010.68 1011.07 1011.41 1011.70 1011.93 1012.13 1012.32 1012.55 1012.82
1010.93 1010.97 1011.00 1011.09 1011.27 1011.56 1011.92 1012.33 1012.70 1012.95 1012.98 1012.76 1012.24 1011.48 1010.53 1009.50 1008.52 1007.68 1007.07 1006.75 1006.70 1006.88 1007.23 1007.66 1008.08 1008.43 1008.69 1008.86 1008.97 1009.06 1009.17 1009.34 1009.58 1009.90 1010.25 1010.62 1010.97 1011.26 1011.50 1011.70 1011.86 1012.04 1012.25 1012.52
1011.36 1011.41 1011.44 1011.47 1011.55 1011.70 1011.90 1012.13 1012.34 1012.46 1012.43 1012.20 1011.77 1011.14 1010.38 1009.56 1008.77 1008.09 1007.59 1007.30 1007.21 1007.30 1007.52 1007.80 1008.07 1008.31 1008.49 1008.62 1008.73 1008.84 1009.00 1009.22 1009.51 1009.84 1010.21 1010.56 1010.88 1011.14 1011.35 1011.50 1011.64 1011.80 1012.00 1012.27
1011.66 1011.73 1011.74 1011.71 1011.69 1011.69 1011.72 1011.78 1011.82 1011.81 1011.71 1011.50 1011.15 1010.68 1010.13 1009.53 1008.96 1008.47 1008.10 1007.86 1007.75 1007.76 1007.84 1007.96 1008.08 1008.18 1008.26 1008.33 1008.42 1008.56 1008.76 1009.03 1009.37 1009.75 1010.14 1010.50 1010.82 1011.07 1011.25 1011.39 1011.52 1011.66 1011.85 1012.11
1011.80 1011.89 1011.88 1011.81 1011.70 1011.58 1011.46 1011.35 1011.24 1011.12 1010.97 1010.77 1010.51 1010.20 1009.85 1009.49 1009.15 1008.85 1008.62 1008.45 1008.33 1008.27 1008.22 1008.18 1008.13 1008.08 1008.04 1008.03 1008.09 1008.22 1008.45 1008.77 1009.17 1009.60 1010.04 1010.44 1010.78 1011.04 1011.24 1011.38 1011.51 1011.64 1011.83 1012.09
1011.77 1011.87 1011.87 1011.78 1011.62 1011.41 1011.18 1010.94 1010.72 1010.51 1010.31 1010.13 1009.95 1009.78 1009.63 1009.49 1009.36 1009.25 1009.15 1009.05 1008.94 1008.81 1008.65 1008.45 1008.24 1008.03 1007.86 1007.75 1007.75 1007.86 1008.10 1008.46 1008.90 1009.39 1009.89 1010.35 1010.74 1011.05 1011.28 1011.46 1011.61 1011.77 1011.97 1012.23
1011.58 1011.71 1011.73 1011.64 1011.47 1011.22 1010.92 1010.61 1010.31 1010.04 1009.82 1009.65 1009.54 1009.49 1009.50 1009.54 1009.60 1009.65 1009.68 1009.64 1009.54 1009.36 1009.09 1008.75 1008.38 1008.02 1007.71 1007.49 1007.41 1007.48 1007.71 1008.09 1008.57 1009.12 1009.68 1010.20 1010.67 1011.05 1011.35 1011.59 1011.79 1011.99 1012.21 1012.49
1011.28 1011.43 1011.48 1011.44 1011.28 1011.04 1010.74 1010.40 1010.06 1009.76 1009.51 1009.36 1009.30 1009.33 1009.45 1009.63 1009.83 1010.01 1010.13 1010.16 1010.06 1009.84 1009.48 1009.03 1008.52 1008.01 1007.56 1007.23 1007.06 1007.08 1007.28 1007.66 1008.17 1008.77 1009.39 1009.99 1010.54 1011.00 1011.39 1011.71 1011.99 1012.25 1012.52 1012.81
1010.92 1011.08 1011.18 1011.19 1011.09 1010.90 1010.62 1010.29 1009.95 1009.63 1009.37 1009.22 1009.18 1009.26 1009.44 1009.70 1010.00 1010.27 1010.46 1010.52 1010.44 1010.18 1009.76 1009.21 1008.59 1007.96 1007.39 1006.95 1006.69 1006.65 1006.82 1007.19 1007.71 1008.34 1009.02 1009.69 1010.32 1010.88 1011.36 1011.77 1012.13 1012.47 1012.79 1013.13
1010.55 1010.73 1010.87 1010.93 1010.90 1010.77 1010.55 1010.25 1009.92 1009.60 1009.33 1009.16 1009.11 1009.20 1009.41 1009.71 1010.04 1010.36 1010.60 1010.69 1010.61 1010.33 1009.86 1009.24 1008.54 1007.81 1007.15 1006.62 1006.29 1006.18 1006.31 1006.66 1007.19 1007.85 1008.57 1009.31 1010.01 1010.66 1011.23 1011.73 1012.18 1012.59 1012.98 1013.36
1010.23 1010.40 1010.56 1010.68 1010.71 1010.64 1010.47 1010.22 1009.90 1009.58 1009.30 1009.11 1009.04 1009.10 1009.29 1009.59 1009.94 1010.27 1010.52 1010.63 1010.55 1010.25 1009.76 1009.10 1008.33 1007.54 1006.81 1006.22 1005.82 1005.66 1005.76 1006.10 1006.63 1007.31 1008.07 1008.86 1009.62 1010.34 1010.99 1011.56 1012.08 1012.56 1013.02 1013.46
1009.98 1010.12 1010.28 1010.42 1010.50 1010.48 1010.36 1010.13 1009.84 1009.52 1009.22 1009.00 1008.89 1008.91 1009.07 1009.34 1009.67 1009.99 1010.24 1010.34 1010.26 1009.96 1009.44 1008.75 1007.95 1007.12 1006.35 1005.71 1005.28 1005.09 1005.18 1005.51 1006.05 1006.75 1007.54 1008.37 1009.19 1009.96 1010.66 1011.29 1011.87 1012.40 1012.90 1013.38
1009.79 1009.88 1010.02 1010.16 1010.25 1010.26 1010.17 1009.97 1009.69 1009.36 1009.05 1008.80 1008.65 1008.63 1008.75 1008.98 1009.28 1009.57 1009.80 1009.89 1009.79 1009.47 1008.94 1008.23 1007.41 1006.55 1005.76 1005.10 1004.65 1004.46 1004.55 1004.89 1005.45 1006.18 1007.01 1007.88 1008.73 1009.54 1010.28 1010.94 1011.55 1012.10 1012.64 1013.15
1009.64 1009.66 1009.75 1009.87 1009.95 1009.97 1009.89 1009.70 1009.43 1009.10 1008.78 1008.51 1008.33 1008.28 1008.36 1008.56 1008.82 1009.08 1009.28 1009.33 1009.21 1008.86 1008.31 1007.57 1006.72 1005.85 1005.04 1004.37 1003.93 1003.75 1003.86 1004.24 1004.84 1005.61 1006.49 1007.40 1008.29 1009.13 1009.88 1010.56 1011.17 1011.74 1012.27 1012.80
1009.49 1009.44 1009.47 1009.54 1009.60 1009.60 1009.52 1009.34 1009.07 1008.76 1008.44 1008.16 1007.98 1007.92 1007.98 1008.15 1008.37 1008.60 1008.75 1008.76 1008.59 1008.20 1007.60 1006.82 1005.93 1005.03 1004.20 1003.53 1003.10 1002.94 1003.09 1003.52 1004.19 1005.02 1005.96 1006.93 1007.87 1008.73 1009.51 1010.19 1010.79 1011.34 1011.86 1012.38
1009.30 1009.18 1009.16 1009.18 1009.20 1009.18 1009.09 1008.92 1008.66 1008.37 1008.07 1007.82 1007.66 1007.60 1007.66 1007.82 1008.02 1008.20 1008.31 1008.26 1008.01 1007.55 1006.87 1006.02 1005.08 1004.13 1003.26 1002.58 1002.15 1002.03 1002.23 1002.72 1003.46 1004.38 1005.40 1006.44 1007.44 1008.35 1009.15 1009.84 1010.42 1010.95 1011.44 1011.94
Thickness
5767 5754 5746 5752 5758 5757 5754 5748 5744 5749 5762 5754 5745 5742 5745 5753 5752 5748 5747 5746 5744 5743 5746 5746 5744 5741 5738 5736 5733 5730 5726 5724 5721 5717 5713 5710 5708 5708 5707 5707 5706 5706 5706 5705
5752 5745 5758 5764 5762 5756 5749 5740 5740 5748 5758 5751 5742 5740 5746 5750 5748 5748 5745 5743 5742 5741 5740 5739 5738 5736 5733 5730 5729 5727 5724 5721 5718 5714 5712 5709 5706 5705 5704 5704 5703 5702 5702 5701
5744 5752 5764 5757 5750 5745 5743 5739 5739 5739 5747 5749 5738 5730 5738 5745 5748 5747 5747 5745 5744 5740 5736 5734 5732 5731 5728 5726 5725 5724 5721 5718 5715 5713 5710 5708 5704 5702 5700 5699 5698 5699 5698 5698
5748 5758 5755 5748 5744 5742 5733 5747 5744 5737 5727 5724 5730 5709 5727 5737 5736 5738 5739 5739 5739 5738 5736 5732 5728 5726 5724 5723 5723 5721 5718 5715 5713 5711 5707 5702 5698 5694 5695 5695 5695 5696 5695 5694
5741 5750 5745 5739 5742 5743 5738 5746 5740 5734 5724 5720 5728 5717 5723 5733 5726 5729 5733 5734 5734 5735 5732 5728 5725 5723 5722 5720 5719 5717 5715 5712 5710 5707 5704 5700 5696 5694 5694 5693 5692 5691 5691 5690
5744 5754 5750 5744 5747 5746 5743 5738 5734 5731 5720 5703 5724 5719 5711 5723 5726 5728 5731 5731 5730 5730 5728 5725 5722 5720 5717 5715 5714 5712 5709 5707 5705 5703 5701 5698 5694 5692 5690 5688 5687 5686 5686 5686
5732 5741 5747 5746 5734 5738 5734 5717 5701 5700 5697 5705 5733 5721 5712 5729 5735 5732 5728 5727 5726 5725 5721 5718 5714 5712 5710 5708 5707 5705 5703 5701 5700 5699 5697 5695 5693 5690 5687 5685 5683 5682 5681 5681
5718 5719 5735 5737 5730 5722 5724 5718 5695 5684 5692 5709 5722 5712 5715 5731 5733 5732 5728 5724 5721 5718 5715 5712 5710 5707 5705 5703 5701 5700 5698 5696 5696 5694 5693 5693 5691 5688 5686 5684 5682 5680 5679 5679
5715 5715 5734 5736 5735 5728 5717 5716 5721 5705 5703 5699 5709 5711 5714 5724 5721 5719 5716 5714 5712 5710 5708 5706 5704 5703 5701 5698 5697 5696 5693 5692 5691 5690 5690 5688 5687 5685 5683 5682 5681 5678 5678 5677
5718 5708 5721 5728 5728 5726 5722 5718 5710 5698 5685 5682 5699 5702 5698 5703 5705 5707 5706 5703 5701 5701 5702 5700 5698 5697 5695 5694 5693 5692 5690 5688 5687 5686 5685 5684 5683 5682 5680 5679 5677 5676 5675 5674
5717 5704 5708 5714 5709 5707 5710 5707 5705 5701 5698 5682 5677 5686 5711 5705 5703 5700 5699 5697 5695 5692 5692 5694 5693 5692 5691 5690 5688 5686 5684 5683 5681 5680 5679 5678 5678 5677 5676 5674 5673 5672 5672 5670
5711 5702 5696 5706 5717 5719 5712 5705 5699 5682 5684 5689 5680 5681 5711 5707 5702 5698 5694 5692 5690 5688 5686 5687 5687 5686 5685 5683 5682 5680 5679 5677 5675 5675 5674 5673 5672 5672 5670 5669 5668 5668 5667 5667
5697 5691 5682 5687 5694 5703 5701 5702 5699 5694 5686 5679 5671 5676 5702 5700 5696 5693 5688 5686 5684 5682 5681 5679 5679 5678 5677 5676 5676 5674 5673 5671 5670 5669 5668 5667 5667 5666 5665 5664 5664 5663 5662 5662
5690 5685 5680 5673 5681 5691 5689 5693 5694 5687 5674 5673 5676 5678 5686 5687 5684 5683 5682 5679 5677 5676 5674 5671 5670 5670 5670 5670 5670 5669 5667 5666 5665 5663 5662 5661 5661 5661 5660 5660 5659 5658 5657 5657
5687 5679 5685 5687 5691 5689 5686 5687 5688 5683 5682 5674 5677 5677 5682 5681 5679 5678 5676 5674 5671 5669 5667 5664 5663 5665 5664 5663 5663 5662 5661 5661 5660 5658 5656 5656 5656 5656 5656 5655 5653 5653 5652 5652
5683 5675 5677 5676 5684 5684 5680 5684 5685 5683 5682 5679 5676 5673 5682 5683 5679 5674 5670 5667 5664 5662 5661 5660 5659 5659 5658 5657 5657 5656 5655 5655 5654 5652 5651 5651 5650 5649 5649 5648 5647 5646 5646 5645
5677 5670 5663 5663 5676 5673 5667 5681 5681 5679 5683 5677 5667 5671 5675 5672 5669 5665 5663 5661 5658 5656 5655 5654 5653 5652 5652 5653 5653 5651 5650 5649 5648 5646 5645 5644 5643 5642 5642 5642 5641 5640 5639 5639
5669 5665 5659 5655 5657 5646 5669 5687 5683 5677 5677 5677 5672 5671 5668 5664 5663 5662 5660 5654 5652 5650 5649 5648 5647 5646 5647 5647 5647 5646 5645 5643 5641 5640 5639 5638 5636 5635 5634 5634 5634 5634 5633 5632
5670 5660 5650 5645 5641 5651 5666 5673 5672 5665 5662 5669 5665 5662 5661 5659 5655 5652 5654 5651 5647 5645 5643 5642 5642 5642 5641 5641 5640 5639 5637 5636 5634 5633 5632 5631 5630 5628 5627 5627 5627 5627 5627 5626
5663 5658 5646 5641 5633 5636 5654 5666 5670 5660 5648 5660 5659 5654 5652 5648 5636 5638 5645 5643 5641 5639 5637 5636 5635 5636 5635 5634 5634 5632 5630 5629 5627 5627 5626 5626 5624 5623 5622 5621 5621 5621 5621 5620
5643 5641 5636 5632 5630 5642 5655 5660 5658 5637 5638 5651 5651 5647 5643 5638 5636 5637 5639 5637 5635 5633 5631 5630 5629 5628 5627 5628 5626 5624 5623 5622 5622 5622 5620 5619 5619 5618 5617 5616 5615 5615 5614 5613
5636 5633 5632 5631 5624 5630 5648 5648 5640 5637 5644 5644 5642 5639 5635 5633 5633 5632 5630 5628 5627 5625 5624 5623 5621 5620 5620 5620 5618 5617 5616 5616 5616 5615 5613 5613 5612 5612 5611 5609 5608 5608 5607 5606
5639 5636 5633 5632 5630 5640 5644 5641 5641 5641 5636 5635 5633 5631 5629 5626 5624 5623 5622 5621 5619 5618 5616 5615 5613 5613 5613 5613 5612 5610 5610 5610 5609 5608 5606 5606 5605 5604 5604 5602 5600 5600 5599 5598
5639 5640 5632 5629 5632 5636 5636 5636 5635 5633 5629 5628 5626 5624 5621 5618 5617 5616 5615 5614 5613 5611 5608 5607 5606 5605 5605 5605 5605 5604 5604 5603 5601 5600 5599 5599 5598 5597 5596 5595 5593 5592 5591 5590
5629 5629 5624 5621 5626 5627 5628 5628 5626 5625 5623 5621 5619 5617 5614 5612 5611 5609 5608 5607 5606 5604 5603 5601 5599 5599 5598 5598 5597 5597 5596 5595 5593 5593 5592 5591 5591 5589 5588 5587 5585 5584 5584 5583
5625 5621 5615 5614 5622 5620 5619 5622 5620 5616 5615 5613 5612 5610 5609 5607 5605 5604 5603 5601 5599 5597 5596 5594 5594 5593 5592 5591 5591 5590 5589 5587 5586 5585 5584 5583 5582 5581 5580 5578 5577 5577 5577 5576